FENGYUN 1C DEB

Satellite information

Favourite Embed

Satellite Type and Status

DEBRISIN ORBIT

Key statistics

Satellite FENGYUN 1C DEB at a glance.

Uptime

9661

Days in orbit

Revolutions

≈ 14.2

Per day

Orbit

SSO

Sun Synchronous Orbit

Inclination

98.8

Latest

Satellite identification and parameters

Extended collection of information and parameters for FENGYUN 1C DEB.

Object identification

Identified? True

Debris? True

Object name: FENGYUN 1C DEB

International designator: 1999-025CUW

Object number (NORAD): 32200

Object ID (CCSDS): 32200

Country: PEOPLES REPUBLIC OF CHINA (PRC)

Current information (Y/N): Y

RCS size: SMALL

Orbital parameters

Period: 101.737 minutes

Inclination: 98.7964 deg

SMA: 7219.056 km

Apoapsis: 870.699 km

Periapsis: 811.142 km

RAAN: 343.5571 deg

Eccentricy: 0.00412498

Argument of periapsis: 83.034 deg

Mean anomaly: 277.5524 deg

Mean motion: 14.15409659 rev/day

Mean motion (dot): 0.00003044 rev/day2

B* drag term: 0.0015695753 1/REarth

Two-line elements (TLE)

Creation date: Oct. 21, 2025, 3:26 a.m.

Reference frame: TEME

Reference center: EARTH

Epoch: Oct. 20, 2025, 8:40 p.m. UTC

TLE line 0: 0 FENGYUN 1C DEB

TLE line 1: 1 32200U 99025CUW 25293.86123470 .00003044 00000-0 15696-2 0 9994

TLE line 2: 2 32200 98.7964 343.5571 0041250 83.0340 277.5524 14.15409659936150

Live tracking on map

Real-time ground track for satellite FENGYUN 1C DEB.

In-orbit conjunctions

A list of the most updated potential collisions computed for object FENGYUN 1C DEB.

Target Orbit TCA Probability of collision Miss distance Type
COSMOS 1066 LEO 2025-10-06 04:11:45 0.0003360045 200.0 (m) PAYLOAD
CZ-6A DEB SSO 2025-05-03 00:18:19 0.0001794491 50.0 (m) DEBRIS
METEOR 2-6 LEO 2025-01-08 14:53:23 0.00117597 153.0 (m) PAYLOAD

Associated space launch

Chinese polar orbiting meteorological satellite

FENGYUN 1C DEB was lifted into orbit during the mission ‘Long March 4B | Feng Yun 1C’, on board a Long March 4B space rocket.

The launch took place on May 10, 1999, 1:33 a.m. from Launch Complex 7.

For more information about the launch, click the button.

Launch to space Long March 4B | Feng Yun 1C
Long March 4B | Feng Yun 1C

Agency: N/A

Status: Launch Successful

Launch date: May 10, 1999, 1:33 a.m. UTC

Rocket: Long March 4B

Launch pad: Launch Complex 7

Location: Taiyuan Satellite Launch Center, People's Republic of China

...

Latest news about this satellite

There are no fresh news available about this satellite. Check back as we update our databases every day.


Newsletter sign-up

Weekly statistics, charts and insights to help you stay on top of the space industry.